Location: Narrabri
(30.3170°S, 149.7830°E)
Time: 13:21:02
(UTC+10:00)

Vanguard 3 - Visible Passes

Search period start: 24 June 2018 00:00
Search period end: 04 July 2018 00:00
Orbit: 508 x 3264 km, 33.3° (Epoch: 23 June)

Date Brightness Start Highest point End Pass type
(mag) Time Alt. Az. Time Alt. Az. Time Alt. Az.
24 Jun 8.8 17:25:49 10° WSW 17:40:49 88° SSE 17:48:52 10° ENE visible
24 Jun 8.8 19:43:58 10° WSW 19:53:14 38° NW 19:55:06 33° N visible
25 Jun 8.8 18:26:29 10° WSW 18:39:25 66° NNW 18:45:59 13° NE visible
25 Jun 10.0 20:45:52 10° W 20:50:11 15° NW 20:50:37 15° NW visible
26 Jun 9.4 19:27:17 10° W 19:37:05 35° NW 19:41:34 18° NNE visible
27 Jun 9.2 18:09:26 10° WSW 18:23:15 60° NNW 18:30:53 10° NE visible
27 Jun 10.1 20:30:05 10° WNW 20:33:58 13° NW 20:37:08 10° NNW visible
28 Jun 9.9 19:10:33 10° W 19:20:49 32° NW 19:27:13 10° NNE visible
29 Jun 9.6 17:52:21 10° WSW 18:06:56 55° NW 18:15:12 10° NE visible
29 Jun 10.5 20:14:33 10° WNW 20:17:39 12° NW 20:20:19 10° NW visible
30 Jun 10.2 18:53:48 10° W 19:04:25 29° NW 19:11:16 10° N visible
01 Jul 10.0 17:35:14 10° WSW 17:50:28 50° NW 17:59:25 10° NE visible
01 Jul 10.8 19:59:54 10° WNW 20:01:15 10° NW 20:02:32 10° NW visible
02 Jul 10.4 18:37:05 10° W 18:47:55 26° NW 18:55:09 10° N visible
03 Jul 10.4 17:18:06 10° WSW 17:33:51 46° NW 17:43:30 10° NNE visible
